Погода в Аксу

Казахстан     52°02′26″N   76°55′34″E
темп.,
°C
ветер,
м/с
пор.,
м/с
влажн.,
%
обл.,
%
осадки,
мм/ч
давл.,
гПа
погр.,
м
25 февраля, чт
чт2500:00−22юз458362 0.0 101769
03:00−24ююз510868 0.0 1018164
06:00−23ююз713835 0.0 1018292
09:00−20юз61385100 0.0 10191194
12:00−19юз91374100 0.0 10191382
15:00−19юз101475100 0.0 10201603
18:00−20юз81382100 0.1 10221078
21:00−22зюз71389100 0.1 1025814
26 февраля, пт
пт2600:00−23з7149295 0.1 1027573
03:00−23з51295100 0.0 1029360
06:00−25з51294100 0.1 1033577
09:00−28зюз5119181 0.0 1035313
12:00−24зюз698878 0.0 1037549
15:00−22зюз5889100 0.0 1038643
18:00−23юз3493100 0.1 103873
21:00−26юз3491100 0.0 103952
27 февраля, сб
сб2700:00−28юз448968 0.0 104049
03:00−30юз34880 0.0 103929
06:00−31юз33890 0.0 103920
09:00−30ююз34890 0.0 103968
12:00−24ююз46870 0.0 1038295
15:00−21ю35860 0.0 1037335
18:00−23ююв34890 0.0 103643
21:00−21ююв4889100 0.0 1033135
28 февраля, вс
вс2800:00−21ююв468881 0.0 103282
03:00−19ююв468633 0.0 103086
06:00−16ююв6118166 0.0 1027222
09:00−13ююв71482100 0.0 1024382
12:00−7ю91493100 2.1 1019910
15:00−3юз71194100 2.1 1016937
18:00−3ююз71296100 3.6 1014668
21:00−2ююз61495100 1.4 1013773
1 марта, пн
пн100:00−2ююз61686100 1.5 1013689
03:00−1юз91597100 1.4 1011854
06:000юз91792100 3.3 1011900
09:000юз81783100 0.2 1011768
12:00+1юз9158595 0.2 1012727
15:00+1юз7148891 0.0 1012773
18:000юз6148695 0.0 1011561
21:00−1з7139260 0.3 1012675